When you browse on this site, cookies collect data to enhance your experience and personalize the content and advertising you see.
Visit our Privacy Policy to learn more. By continuing to use the site, you agree to this use of cookies and data.
  • en France
  • Liste des pays
  • À 7 jours
  • Température de l'eau
  • Carte satellitaire
  • Carte météo
  • Widgets météo
  • user-avatar
    Se connecter

    Météo par heure à Sliven

    Ce jour, 23 Mars, Samedi

    Heure Température Précipitation Vent Pression Humidité
    00:00 +8°C° 0 mm 1 m/s 739 mmHg 67%
    01:00 +8°C° 0 mm 1 m/s 738 mmHg 68%
    02:00 +7°C° 0 mm 2 m/s 738 mmHg 66%
    03:00 +7°C° 0 mm 2 m/s 738 mmHg 67%
    04:00 +7°C° 0 mm 2 m/s 738 mmHg 68%
    05:00 +6°C° 0 mm 2 m/s 738 mmHg 69%
    06:00 +7°C° 0 mm 2 m/s 738 mmHg 69%
    07:00 +8°C° 0 mm 2 m/s 738 mmHg 68%
    08:00 +9°C° 0 mm 2 m/s 738 mmHg 64%
    09:00 +12°C° 0 mm 2 m/s 738 mmHg 60%
    10:00 +13°C° 0 mm 2 m/s 738 mmHg 57%
    11:00 +14°C° 0 mm 2 m/s 738 mmHg 53%
    12:00 +14°C° 0 mm 2 m/s 737 mmHg 53%
    13:00 +14°C° 0 mm 2 m/s 737 mmHg 53%
    14:00 +14°C° 0 mm 2 m/s 737 mmHg 53%
    15:00 +13°C° 0 mm 3 m/s 737 mmHg 55%
    16:00 +12°C° 0 mm 3 m/s 736 mmHg 56%
    17:00 +12°C° 0 mm 4 m/s 736 mmHg 58%
    18:00 +10°C° 0 mm 3 m/s 736 mmHg 58%
    19:00 +9°C° 0 mm 3 m/s 737 mmHg 58%
    20:00 +7°C° 0 mm 3 m/s 737 mmHg 57%
    21:00 +7°C° 0 mm 2 m/s 737 mmHg 51%
    22:00 +7°C° 0 mm 2 m/s 738 mmHg 44%
    23:00 +8°C° 0 mm 2 m/s 738 mmHg 37%

    Demain, 24 Mars, Dimanche

    Heure Température Précipitation Vent Pression Humidité
    00:00 +8°C° 0 mm 1 m/s 738 mmHg 40%
    01:00 +8°C° 0 mm 1 m/s 738 mmHg 43%
    02:00 +7°C° 0 mm 1 m/s 738 mmHg 46%
    03:00 +6°C° 0 mm 1 m/s 738 mmHg 49%
    04:00 +5°C° 0 mm 0 m/s 737 mmHg 51%
    05:00 +4°C° 0 mm 0 m/s 737 mmHg 54%
    06:00 +6°C° 0 mm 1 m/s 737 mmHg 51%
    07:00 +7°C° 0 mm 1 m/s 737 mmHg 49%
    08:00 +7°C° 0 mm 1 m/s 738 mmHg 46%
    09:00 +9°C° 0 mm 1 m/s 738 mmHg 41%
    10:00 +10°C° 0 mm 2 m/s 738 mmHg 35%
    11:00 +11°C° 0 mm 3 m/s 738 mmHg 30%
    12:00 +12°C° 0 mm 3 m/s 737 mmHg 29%
    13:00 +13°C° 0 mm 3 m/s 737 mmHg 29%
    14:00 +14°C° 0 mm 3 m/s 736 mmHg 28%
    15:00 +13°C° 0 mm 3 m/s 736 mmHg 31%
    16:00 +13°C° 0 mm 3 m/s 735 mmHg 33%
    17:00 +13°C° 0 mm 3 m/s 735 mmHg 36%
    18:00 +12°C° 0 mm 2 m/s 735 mmHg 41%
    19:00 +9°C° 0 mm 2 m/s 735 mmHg 47%
    20:00 +9°C° 0 mm 1 m/s 735 mmHg 52%
    21:00 +8°C° 0 mm 1 m/s 735 mmHg 54%
    22:00 +7°C° 0 mm 1 m/s 735 mmHg 55%
    23:00 +6°C° 0 mm 0 m/s 735 mmHg 57%

    Après-demain, 25 Mars, Lundi

    Heure Température Précipitation Vent Pression Humidité
    00:00 +5°C° 0 mm 0 m/s 734 mmHg 58%
    01:00 +5°C° 0 mm 0 m/s 734 mmHg 59%
    02:00 +5°C° 0 mm 0 m/s 734 mmHg 60%
    03:00 +5°C° 0 mm 1 m/s 734 mmHg 60%
    04:00 +5°C° 0 mm 1 m/s 733 mmHg 61%
    05:00 +5°C° 0 mm 1 m/s 733 mmHg 61%
    06:00 +6°C° 0 mm 1 m/s 733 mmHg 59%
    07:00 +7°C° 0 mm 1 m/s 732 mmHg 56%
    08:00 +8°C° 0 mm 1 m/s 732 mmHg 54%
    09:00 +10°C° 0 mm 2 m/s 732 mmHg 49%
    10:00 +13°C° 0 mm 2 m/s 732 mmHg 44%
    11:00 +15°C° 0 mm 2 m/s 732 mmHg 39%
    12:00 +16°C° 0 mm 3 m/s 731 mmHg 38%
    13:00 +17°C° 0 mm 3 m/s 731 mmHg 36%
    14:00 +17°C° 0 mm 3 m/s 730 mmHg 35%
    15:00 +17°C° 0 mm 3 m/s 730 mmHg 37%
    16:00 +17°C° 0 mm 3 m/s 729 mmHg 38%
    17:00 +17°C° 0 mm 3 m/s 729 mmHg 40%
    18:00 +14°C° 0 mm 2 m/s 729 mmHg 47%
    19:00 +12°C° 0 mm 2 m/s 729 mmHg 54%
    20:00 +10°C° 0 mm 1 m/s 729 mmHg 61%
    21:00 +10°C° 0 mm 1 m/s 728 mmHg 62%
    22:00 +9°C° 0 mm 1 m/s 728 mmHg 63%
    23:00 +9°C° 0 mm 1 m/s 728 mmHg 64%

    26 Mars, Mardi

    Heure Température Précipitation Vent Pression Humidité
    00:00 +8°C° 0 mm 1 m/s 728 mmHg 65%
    01:00 +8°C° 0 mm 1 m/s 728 mmHg 66%
    02:00 +8°C° 0 mm 1 m/s 728 mmHg 67%
    03:00 +7°C° 0 mm 1 m/s 728 mmHg 69%
    04:00 +7°C° 0 mm 1 m/s 728 mmHg 71%
    05:00 +7°C° 0 mm 1 m/s 728 mmHg 73%
    06:00 +8°C° 0 mm 1 m/s 728 mmHg 69%
    07:00 +9°C° 0 mm 1 m/s 729 mmHg 66%
    08:00 +10°C° 0 mm 1 m/s 729 mmHg 62%
    09:00 +12°C° 0 mm 2 m/s 729 mmHg 60%
    10:00 +13°C° 0 mm 3 m/s 730 mmHg 58%
    11:00 +14°C° 0 mm 4 m/s 730 mmHg 56%
    12:00 +14°C° 0 mm 5 m/s 730 mmHg 56%
    13:00 +13°C° 0 mm 6 m/s 730 mmHg 56%
    14:00 +13°C° 0 mm 6 m/s 730 mmHg 56%
    15:00 +11°C° 0.2 mm 6 m/s 731 mmHg 60%
    16:00 +10°C° 0.2 mm 7 m/s 731 mmHg 64%
    17:00 +9°C° 0.2 mm 7 m/s 731 mmHg 68%
    18:00 +8°C° 0.2 mm 6 m/s 732 mmHg 72%
    19:00 +7°C° 0.2 mm 5 m/s 733 mmHg 76%
    20:00 +7°C° 0.2 mm 3 m/s 733 mmHg 80%
    21:00 +7°C° 0.2 mm 3 m/s 734 mmHg 80%
    22:00 +7°C° 0.2 mm 3 m/s 734 mmHg 81%
    23:00 +7°C° 0.2 mm 2 m/s 735 mmHg 81%

    27 Mars, Mercredi

    Heure Température Précipitation Vent Pression Humidité
    00:00 +6°C° 0 mm 2 m/s 735 mmHg 82%
    01:00 +6°C° 0 mm 2 m/s 735 mmHg 83%
    02:00 +5°C° 0 mm 2 m/s 735 mmHg 84%
    03:00 +5°C° 0 mm 2 m/s 736 mmHg 84%
    04:00 +5°C° 0 mm 2 m/s 736 mmHg 83%
    05:00 +5°C° 0 mm 2 m/s 736 mmHg 83%
    06:00 +5°C° 0 mm 2 m/s 736 mmHg 78%
    07:00 +5°C° 0 mm 2 m/s 737 mmHg 73%
    08:00 +5°C° 0 mm 2 m/s 737 mmHg 68%
    09:00 +6°C° 0.1 mm 2 m/s 738 mmHg 64%
    10:00 +7°C° 0.1 mm 2 m/s 738 mmHg 59%
    11:00 +8°C° 0.1 mm 2 m/s 738 mmHg 55%
    12:00 +9°C° 0.1 mm 2 m/s 738 mmHg 53%
    13:00 +9°C° 0.1 mm 2 m/s 738 mmHg 51%
    14:00 +10°C° 0.1 mm 2 m/s 738 mmHg 50%
    15:00 +10°C° 0.1 mm 2 m/s 738 mmHg 51%
    16:00 +9°C° 0.1 mm 2 m/s 738 mmHg 52%
    17:00 +9°C° 0.1 mm 2 m/s 738 mmHg 54%
    18:00 +8°C° 0.2 mm 2 m/s 738 mmHg 59%
    19:00 +7°C° 0.2 mm 2 m/s 739 mmHg 64%
    20:00 +6°C° 0.2 mm 2 m/s 739 mmHg 69%
    21:00 +6°C° 0.1 mm 2 m/s 739 mmHg 70%
    22:00 +5°C° 0.1 mm 2 m/s 739 mmHg 71%
    23:00 +5°C° 0.1 mm 2 m/s 740 mmHg 73%

    28 Mars, Jeudi

    Heure Température Précipitation Vent Pression Humidité
    00:00 +6°C° 0 mm 1 m/s 740 mmHg 73%
    01:00 +5°C° 0 mm 1 m/s 740 mmHg 74%
    02:00 +5°C° 0 mm 1 m/s 740 mmHg 74%
    03:00 +4°C° 0 mm 1 m/s 740 mmHg 75%
    04:00 +3°C° 0 mm 1 m/s 740 mmHg 75%
    05:00 +2°C° 0 mm 2 m/s 740 mmHg 75%
    06:00 +3°C° 0 mm 2 m/s 741 mmHg 70%
    07:00 +3°C° 0 mm 2 m/s 741 mmHg 64%
    08:00 +3°C° 0 mm 3 m/s 742 mmHg 59%
    09:00 +4°C° 0 mm 3 m/s 742 mmHg 52%
    10:00 +6°C° 0 mm 4 m/s 742 mmHg 46%
    11:00 +7°C° 0 mm 4 m/s 742 mmHg 40%
    12:00 +7°C° 0 mm 5 m/s 742 mmHg 38%
    13:00 +8°C° 0 mm 5 m/s 742 mmHg 37%
    14:00 +8°C° 0 mm 5 m/s 741 mmHg 35%
    15:00 +8°C° 0 mm 5 m/s 741 mmHg 36%
    16:00 +7°C° 0 mm 5 m/s 741 mmHg 37%
    17:00 +7°C° 0 mm 5 m/s 741 mmHg 38%
    18:00 +5°C° 0 mm 4 m/s 741 mmHg 45%
    19:00 +3°C° 0 mm 3 m/s 742 mmHg 51%
    20:00 +3°C° 0 mm 2 m/s 742 mmHg 57%
    21:00 +2°C° 0 mm 2 m/s 742 mmHg 59%
    22:00 +2°C° 0 mm 1 m/s 742 mmHg 60%
    23:00 +2°C° 0 mm 1 m/s 742 mmHg 62%
    Voir plus